TimeEST,TemperatureF,Dew PointF,Humidity,Sea Level PressureIn,VisibilityMPH,Wind Direction,Wind SpeedMPH,Gust SpeedMPH,PrecipitationIn,Events,Conditions,WindDirDegrees,DateUTC
12:26 AM,78.8,75.2,89,29.96,10.0,SSE,8.1,-,N/A,,Partly Cloudy,160,2012-12-11 05:26:00
12:53 AM,79.0,75.0,88,29.95,10.0,SSE,10.4,-,N/A,,Clear,160,2012-12-11 05:53:00
1:53 AM,78.1,75.0,90,29.94,10.0,SSE,9.2,-,N/A,,Partly Cloudy,160,2012-12-11 06:53:00
2:53 AM,78.1,75.0,90,29.94,10.0,South,8.1,-,N/A,,Scattered Clouds,170,2012-12-11 07:53:00
3:53 AM,78.1,75.0,90,29.94,10.0,SSE,8.1,-,N/A,,Clear,160,2012-12-11 08:53:00
4:53 AM,78.1,75.0,90,29.94,10.0,South,6.9,-,N/A,,Clear,180,2012-12-11 09:53:00
5:53 AM,78.1,73.0,84,29.95,10.0,SSW,8.1,-,N/A,,Clear,200,2012-12-11 10:53:00
6:53 AM,78.1,73.9,87,29.96,10.0,South,5.8,-,N/A,,Scattered Clouds,180,2012-12-11 11:53:00
7:53 AM,78.1,73.9,87,29.99,10.0,South,5.8,-,N/A,,Scattered Clouds,190,2012-12-11 12:53:00
8:53 AM,81.0,73.0,77,30.01,10.0,South,5.8,-,N/A,,Scattered Clouds,180,2012-12-11 13:53:00
9:53 AM,82.9,73.9,74,30.02,10.0,South,8.1,-,N/A,,Scattered Clouds,190,2012-12-11 14:53:00
10:53 AM,82.0,73.0,74,30.02,10.0,South,9.2,-,N/A,,Partly Cloudy,170,2012-12-11 15:53:00
11:53 AM,82.9,73.9,74,30.01,10.0,SSE,9.2,-,N/A,,Partly Cloudy,150,2012-12-11 16:53:00
12:53 PM,82.9,73.0,72,29.99,10.0,SSE,10.4,-,N/A,,Scattered Clouds,150,2012-12-11 17:53:00
1:53 PM,82.0,73.0,74,29.96,10.0,SE,10.4,-,N/A,,Scattered Clouds,140,2012-12-11 18:53:00
2:53 PM,82.0,73.0,74,29.96,10.0,SSE,6.9,-,N/A,,Mostly Cloudy,150,2012-12-11 19:53:00
3:53 PM,81.0,73.0,77,29.93,10.0,SE,8.1,-,N/A,,Mostly Cloudy,140,2012-12-11 20:53:00
4:53 PM,80.1,73.0,79,29.94,10.0,SSE,9.2,-,N/A,,Mostly Cloudy,150,2012-12-11 21:53:00
5:53 PM,78.1,73.9,87,29.96,10.0,SE,4.6,-,N/A,,Mostly Cloudy,140,2012-12-11 22:53:00
6:53 PM,78.1,73.9,87,29.96,10.0,SE,6.9,-,N/A,,Mostly Cloudy,130,2012-12-11 23:53:00
7:53 PM,78.1,73.9,87,29.98,10.0,ESE,6.9,-,N/A,,Mostly Cloudy,120,2012-12-12 00:53:00
8:53 PM,78.1,73.9,87,30.01,10.0,ESE,4.6,-,N/A,,Mostly Cloudy,120,2012-12-12 01:53:00
9:53 PM,78.1,73.9,87,30.02,10.0,ESE,6.9,-,N/A,,Mostly Cloudy,110,2012-12-12 02:53:00
10:53 PM,78.1,73.9,87,30.04,10.0,ESE,8.1,-,N/A,,Clear,110,2012-12-12 03:53:00
11:53 PM,78.1,73.9,87,30.04,10.0,ESE,8.1,-,N/A,,Scattered Clouds,110,2012-12-12 04:53:00